Regional Weather Roundup
Issued by NWS Newport/Morehead, NC

Current Version | Previous Version | Graphics & Text | Print | Product List | Glossary Off
Versions: 1 2 3 4 5 6 7 8 9 10 11 12 13 14 15 16 17 18 19 20 21 22 23 24 25 26 27 28 29 30 31 32 33 34 35 36 37 38 39 40 41 42 43 44 45 46 47 48 49 50
000 ASUS42 KMHX 220825 RWRMHX WEATHER ROUNDUP FOR EASTERN NORTH CAROLINA NATIONAL WEATHER SERVICE NEWPORT/MOREHEAD CITY NC 400 AM EDT SUN OCT 22 2017 NOTE: "FAIR" INDICATES FEW OR NO CLOUDS BELOW 12,000 FEET WITH NO SIGNIFICANT WEATHER AND/OR OBSTRUCTIONS TO VISIBILITY NCZ015>017-031-032-045>047-102-103-220900- NORTH COAST CITY SKY/WX TMP DP RH WIND PRES REMARKS EDENTON CLOUDY 55 53 93 CALM 30.33S ELIZABETH CITY PTCLDY 55 55 100 CALM 30.32F KITTY HAWK MOSUNNY 65 60 82 CALM 30.31S MANTEO PTCLDY N/A N/A N/A CALM 30.32F $$ NCZ045>047-081-094-103-104-220900- CENTRAL COAST CITY SKY/WX TMP DP RH WIND PRES REMARKS FRISCO PTCLDY 66 60 81 E5 30.30F $$ NCZ095-097-098-100-101-220900- SOUTHERN COAST CITY SKY/WX TMP DP RH WIND PRES REMARKS BEAUFORT CLEAR 61 60 97 CALM 30.31S CEDAR ISLAND NOT AVBL JACKSONVILLE PTCLDY 59 56 89 N5 30.30F PINEY ISLAND N/A N/A N/A N/A NE6 30.31S WILMINGTON PTCLDY 59 58 96 CALM 30.30F $$ NCZ011>013-027>030-043-044-078>080-089-090>093-098-220900- COASTAL PLAIN CITY SKY/WX TMP DP RH WIND PRES REMARKS AHOSKIE PTCLDY 51 51 100 CALM 30.34R CLINTON CLOUDY 55 55 100 CALM 30.32F ELIZABETHTOWN NOT AVBL GOLDSBORO CLOUDY 55 53 94 CALM 30.30F FOG GREENVILLE PTCLDY 54 54 100 CALM 30.33F FOG HAVELOCK PTCLDY 57 57 100 CALM 30.32F VSB 1 KENANSVILLE CLOUDY 50 48 93 CALM 30.32S KINSTON PTCLDY 53 52 98 CALM 30.32F FOG NEW BERN FOG 55 55 100 CALM 30.33S VSB 1/2 RICHLANDS CLEAR 53 52 96 CALM 30.32F ROCKY MOUNT FOG 53 53 100 CALM 30.33F VSB 1/4 WASHINGTON PTCLDY 54 54 97 CALM 30.33S WHITEVILLE CLOUDY 58 57 97 CALM 30.30R $$ AMZ130-135-150-152-154-156-158-170-250-252-270-ANZ085-086-088-633-658-670-220900- MARINE OBSERVATIONS STATION/POSITION TIME TEMP WIND PRES WAVE SWELL AIR SEA DIR/SP/G HT/PER HT/PER (UTC) (F) (DEG/KT/KT) (MB) (FT/S) (FT/S) CHESAPEAKE LIGHT NOT AVBL 64 E VA BEACH 0750 68 69 70/ 4/ 6 1027.4 2/ 8 2/ 8 DUCK 0800 69 70 80/ 6/ 7 1026.2 2 E DUCK 0800 70 N/A 2/ 8 OREGON INLET 0800 69 72 50/ 5/ 6 1026.4 13E OREGON INLT 0748 72 N/A 2/ 8 2/ 8 HATTERAS CG 0800 68 72 70/ 3/ 4 1026.0 DIAMOND BUOY 0750 75 81 100/ 6/ 8 1026.0 3/ 8 3/ 8 CAPE LOOKOUT 0800 68 10/ 7/ 8 1025.8 BEAUFORT LAB 0800 64 72 10/ 5/ 6 1026.3 30 SE NEW RVR IN 0808 74 60/ 12/ 16 1025.2 30 SE NEW RVR IN NOT AVBL 27 SE WRIGHTSVLE 0808 74 76 60/ 12/ 17 1025.3 5 SE WRIGHTSVLE 0808 73 74 80/ 12/ 16 1025.4 225 S CAPE HAT 0750 76 80 90/ 14/ 16 1024.2 4/ 8 3/ 8 41 SE CHARLESTON 0800 77 79 110/ 12/ 14 1023.2 $$

USA.gov is the U.S. government's official web portal to all federal, state and local government web resources and services.